sat.trackr.live / text

‹ back to catalog

SITRO-AIS 15

NORAD 61738 · 2024-199D

PAYLOAD ACTIVE UNKNOWN

§ Identity

Operator
Country
CIS
Launch date
2024-11-04
Launch site
VOSTO
Launch vehicle
Mass (kg)
RCS (m²)

External: N2YO · Heavens-Above · Gunter

§ Orbital elements

Epoch: 2026-09-22T21:04:20.520192Z

Period
96.13 min
Inclination
97.3182°
Eccentricity
0.0007868
Mean motion
14.98001691 rev/d
Perigee alt
567.6 km
Apogee alt
578.5 km
Semi-major
6,951.2 km
B*
1.5804e-4
RAAN
99.1673°
Arg perigee
95.9365°
Mean anomaly
264.2755°
Rev number
14,644

§ Raw data

SITRO-AIS 151 61738U 24199D   26265.87801528  .00001813  00000+0  15804-3 0  99932 61738  97.3182  99.1673 0007868  95.9365 264.2755 14.98001691146447

JSON: /api/v1/satellites/61738 · /tle

For live sub-satellite position, see the globe view (requires WebGL).

§ Visibility from observer

Set your observer location to see the next 7 days of passes ≥ 10°. The values pass through the URL so the page stays shareable.

No JS? Fill the form by hand. The geolocation button needs JavaScript.

§ Radio — SatNOGS DB

ModeDescriptionDownlinkUplink
GMSK USP Mode U - GMSK2k4 - USP 401.055 MHz

1 transmitter · refreshed weekly from db.satnogs.org